FOX-1A (AO-85)

Last updated on Sun Jan 18 2026 00:03:08 GMT+0000 (Coordinated Universal Time)

1 40967U 15058D 26017.45298782 .00001736 00000+0 16847-3 0 9991 2 40967 64.7748 27.0626 0131626 116.0981 245.3746 14.89928353 91106
UTC large
Height (km)
Speed (km/s)
/
Latitude / Longitude
Inclination (degrees)
Orbital Period (minutes)
Azimuth
Elevation
Range (km)
Doppler Factor

Next 0 passes for location: London (51.5072 / 0.1276)

Sorry there are no passes over London.